Regional Weather Roundup
Issued by NWS

Home | Current Version | Previous Version | Graphics & Text | Print | Product List | Glossary On
Versions: 1 2 3 4 5 6 7 8 9 10 11 12 13 14 15 16 17 18 19 20 21 22 23 24 25 26 27
000
ASUS45 KBOU 170707
RWRCO

WEATHER ROUNDUP FOR COLORADO
NATIONAL WEATHER SERVICE DENVER/BOULDER CO
1200 AM MST TUE JAN 17 2017

NOTE: "FAIR" INDICATES FEW OR NO CLOUDS BELOW 12000 FEET WITH NO
SIGNIFICANT WEATHER AND/OR OBSTRUCTIONS TO VISIBILITY.

COZ001>005-013-030-031-170800-
...NORTHWEST COLORADO...

CITY           SKY/WX    TMP DP  RH WIND       PRES   REMARKS
CRAIG          CLOUDY    16  13  88 CALM      30.19S
HAYDEN         CLOUDY    14  10  85 SW3       30.17R
MEEKER         CLOUDY    17  11  77 CALM      30.16S
MOUNT WERNER   NOT AVBL
STEAMBOAT SPGS CLOUDY    17  16  94 CALM      30.15S
WALDEN           N/A    N/A N/A N/A CALM      30.12R VSB 1/4
$$

COZ006>008-011-170800-
...WEST CENTRAL VALLEYS...

CITY           SKY/WX    TMP DP  RH WIND       PRES   REMARKS
GRAND JUNCTION FAIR      29  21  72 CALM      30.13S
MONTROSE       CLOUDY    30  25  81 SE7       30.15S WCI  23
EAGLE          CLOUDY    23  20  88 CALM      30.14S
RIFLE          FAIR      22  17  81 CALM      30.15S
DELTA          CLOUDY    36  29  74 E3        30.15R
NUCLA          CLOUDY    30  27  86 SE7       30.15S WCI  23
$$

COZ017>023-064>068-170800-
...SOUTHWEST COLORADO...

CITY           SKY/WX    TMP DP  RH WIND       PRES   REMARKS
DURANGO        LGT SNOW  32  29  88 NE3       30.09F FOG
CORTEZ         CLOUDY    34  33  96 CALM      30.09S
PAGOSA SPRINGS LGT SNOW  32  32 100 CALM      30.10S
TELLURIDE      FLURRIES  24  23  98 CALM      30.09R
WOLF CREEK PAS   N/A     18  18 100 S3        30.14F
$$

COZ009-010-012-014-032>034-037-058>063-170800-
...CENTRAL COLORADO...

CITY           SKY/WX    TMP DP  RH WIND       PRES   REMARKS
ASPEN          CLOUDY    25  21  85 SW5       30.09S WCI  19
BUENA VISTA    CLOUDY    28  27  93 SE3       30.10S
COPPER MTN     FAIR      23  18  80 MISG      30.08S
BERTHOUD PASS  NOT AVBL
COTTONWOOD PAS CLOUDY   N/A N/A N/A CALM      30.09S
GUNNISON       CLOUDY    25  23  92 CALM      30.10S
KREMMLING      FAIR      12   9  85 CALM      30.14R FOG
LEADVILLE      FOG       22  20  92 CALM      30.07F VSB 1/2
MONARCH PASS   CLOUDY    19  16  86 MISG      30.20S
SALIDA         CLOUDY    30  29  95 CALM      30.17F
SUNLIGHT       FAIR      19  18  93 CALM      30.12S FOG
WILKERSON PASS SNOW     N/A N/A N/A SW6       30.09F VSB 1/4
$$

COZ069>075-170800-
...SAN LUIS VALLEY/SANGRE DE CRISTO MOUNTAINS...

CITY           SKY/WX    TMP DP  RH WIND       PRES   REMARKS
ALAMOSA        LGT SNOW  28  26  92 W6        30.09S FOG     WCI  22
LA VETA PASS   LGT SNOW  21  19  93 CALM      30.09F
SAGUACHE       LGT SNOW  30  30 100 E5        30.09S WCI  25
$$

COZ035-036-038>040-170800-
...NORTHERN COLORADO FRONT RANGE...

CITY           SKY/WX    TMP DP  RH WIND       PRES   REMARKS
DENVER INTL AP FAIR      27  20  75 SW10      30.08F WCI  17
DMNS CITY PARK   N/A     29  23  77 SE8       30.07F WCI  22
AURORA         PTCLDY    23  20  86 S9        30.08F WCI  13
FRONT RANGE AP FAIR      28  21  74 S7        30.09F WCI  21
ERIE MUNI ARPT FAIR      26  22  84 CALM      30.08F
BOULDER MUN AP FAIR      30  30 100 NW3       30.07S
CENTENNIAL     FAIR      26  21  81 S10       30.07F WCI  16
BROOMFIELD     FAIR      32  27  80 S3        30.07F
FORT COLLINS   FAIR      25  19  80 NE6       30.10S WCI  18
LONGMONT         N/A     23  22  94 CALM      30.10F FOG
$$

COZ041-046-047-076>085-087-088-170800-
...PIKES PEAK/PALMER DIVIDE AND SOUTHERN FOOTHILLS...

CITY           SKY/WX    TMP DP  RH WIND       PRES   REMARKS
COLO. SPRINGS  MOCLDY    29  26  89 SW5       30.12F WCI  24
A. F. ACADEMY  CLOUDY    23  19  86 N6        30.09F WCI  15
SCHRIEVER AFB  NOT AVBL
ELLICOTT       MOCLDY   N/A N/A N/A SW8       30.10F
FALCON         CLOUDY    26  22  84 SW7       30.10F WCI  19
FORT CARSON    CLOUDY    30  28  93 SW6       30.13F FOG     WCI  24
LIMON          CLOUDY    29  22  75 NW5       30.09F WCI  24
MONUMENT HILL  MOCLDY    21  19  93 S5        30.09F WCI  15
TRINIDAD       LGT SNOW  30  27  88 CALM      30.15S FOG
$$

COZ042>045-048>051-090-091-170800-
...NORTHEAST COLORADO...

CITY           SKY/WX    TMP DP  RH WIND       PRES   REMARKS
GREELEY ARPT   FAIR      23  20  88 N7        30.11F WCI  15
AKRON          FAIR      19  13  77 W8        30.08S WCI   9
BURLINGTON     FAIR      26  21  81 W10       30.09S WCI  16
WRAY           FAIR      27  23  86 W7        30.10S WCI  19
STERLING       FAIR      21  16  79 W5        30.09F WCI  15
HOLYOKE        FAIR      32  19  59 NW12      30.08S WCI  23
FORT MORGAN    FAIR      27  15  62 NW12      30.10F WCI  16
$$

COZ086-089-092>099-170800-
...SOUTHEAST COLORADO...

CITY           SKY/WX    TMP DP  RH WIND       PRES   REMARKS
PUEBLO         CLOUDY    33  32  96 SW5       30.14F WCI  29
LA JUNTA       CLOUDY    34  31  88 W7        30.16S WCI  28
LAMAR          LGT SNOW  33  31  92 W8        30.14S FOG     WCI  26
SPRINGFIELD      N/A     31  31 100 NW9       30.13S WCI  23
$$




USA.gov is the U.S. government's official web portal to all federal, state and local government web resources and services.